Probability
0 0 0 0 0 0 0 0 0 6 6 0 13 13 16 19 19 19 26 23 29 35 48 42 42 42 35 35 32 32 39 42 45 55 55 52 42 45 32 29 23 23 26 32
0 0 0 0 0 0 0 0 3 6 6 3 13 23 23 23 23 29 29 19 26 35 39 42 45 42 39 35 35 42 35 29 35 45 35 39 35 32 29 26 26 19 23 26
0 0 0 0 0 0 0 0 0 10 3 3 10 19 26 26 23 26 19 29 26 29 39 39 45 35 35 32 32 32 32 29 26 32 26 29 23 29 29 29 26 26 16 19
0 0 0 0 0 0 0 3 3 6 13 6 16 13 23 19 16 23 19 32 32 39 42 45 52 45 42 42 35 32 29 29 26 26 23 29 29 32 29 23 23 23 19 19
3 0 0 0 0 0 0 0 3 0 10 10 10 13 10 6 6 6 23 35 39 39 35 42 39 39 39 39 39 29 23 19 19 23 29 26 32 32 26 26 23 16 19 23
3 0 0 0 3 0 0 0 0 3 3 10 6 6 6 10 10 6 19 32 35 29 32 35 39 35 35 32 32 29 19 23 23 26 23 32 35 35 26 35 32 19 16 23
3 0 0 0 6 3 0 10 3 3 10 13 13 13 10 19 13 23 29 32 29 32 32 35 29 39 35 32 35 29 26 29 29 29 32 32 39 32 32 32 26 19 23 26
6 0 3 3 6 10 26 19 13 6 13 16 13 10 10 13 19 19 19 23 26 35 32 29 29 29 32 32 29 29 26 26 26 23 19 19 35 32 29 26 23 26 26 23
6 3 6 6 13 13 19 23 16 16 16 16 13 10 10 13 16 23 23 19 23 29 29 29 29 29 32 32 32 26 32 26 26 26 23 26 29 26 26 29 19 16 10 13
0 0 3 3 13 6 3 6 10 13 10 10 10 10 10 13 19 19 19 16 26 29 29 29 29 29 29 32 26 29 29 29 23 23 26 29 23 19 13 13 13 6 6 6
0 0 0 3 3 3 6 6 6 10 13 10 10 6 10 19 16 16 13 16 16 26 26 26 26 23 23 23 29 26 26 26 23 23 23 23 19 19 13 10 3 6 6 6
0 3 0 0 3 3 3 6 3 3 6 6 6 10 10 16 16 13 13 13 16 16 23 23 23 23 23 19 19 23 26 26 23 16 19 16 13 10 0 0 0 0 0 0
3 0 0 3 3 3 3 3 3 6 6 10 10 10 10 16 16 13 13 13 16 16 16 23 23 19 16 16 16 16 19 19 19 19 23 13 10 10 10 0 0 0 0 0
3 3 0 3 3 6 3 3 3 6 6 6 6 10 3 6 6 6 6 10 13 13 13 16 13 13 13 10 10 13 13 13 16 16 16 10 10 6 6 10 3 0 0 0
3 0 0 3 3 3 3 6 6 6 6 6 6 3 6 6 6 3 3 3 6 10 13 10 10 13 10 6 10 10 13 13 13 6 0 3 3 3 0 0 0 3 3 0
0 0 0 0 0 0 6 6 6 3 3 0 3 3 3 3 3 3 3 3 6 13 10 10 10 10 6 6 6 6 13 6 6 6 3 0 0 0 0 0 0 0 0 0
3 3 3 0 0 0 3 3 3 3 3 3 3 3 3 3 3 3 3 3 3 3 10 10 10 6 6 6 6 6 3 3 0 3 3 3 0 0 0 0 0 0 0 0
3 3 3 3 3 3 0 0 0 0 0 3 3 3 3 3 3 6 3 6 3 3 3 3 6 6 6 6 3 0 0 3 0 0 3 3 3 3 0 0 0 0 0 0
3 3 3 3 3 3 3 3 3 3 0 3 3 3 3 3 3 3 3 3 3 3 3 3 3 3 3 3 3 3 0 3 0 0 0 0 0 0 0 0 0 0 0 0
0 3 3 3 3 3 3 3 3 3 3 3 3 3 3 3 3 3 3 3 3 3 3 3 3 3 3 3 0 0 0 0 0 0 0 0 0 0 0 0 0 0 0 0
0 0 0 3 3 3 3 3 3 3 3 0 3 3 3 3 3 3 3 3 3 3 3 3 3 3 3 3 0 0 0 0 3 3 0 0 0 0 0 0 3 0 0 0
0 0 0 0 0 0 3 3 3 3 3 3 3 3 3 3 3 3 3 3 3 3 3 3 3 3 3 3 3 3 3 0 0 0 0 3 6 6 0 3 3 0 3 3
0 0 0 0 0 0 0 0 3 3 3 3 3 3 3 3 3 3 3 0 3 0 0 0 3 0 0 0 3 3 3 3 0 0 0 0 0 0 3 3 3 3 0 0
0 0 0 0 0 0 0 0 0 0 0 3 3 3 6 3 3 3 3 0 0 0 0 0 0 0 0 3 3 3 3 3 0 0 0 0 0 0 0 3 0 0 0 0
0 0 0 0 0 0 0 0 0 0 0 0 0 0 0 3 3 3 0 0 0 0 0 0 0 0 0 3 3 3 3 0 0 0 0 0 0 0 3 3 3 0 0 0
0 0 0 0 0 0 0 0 0 0 0 0 0 0 0 0 0 0 3 0 0 0 0 0 0 0 0 0 0 3 3 0 0 0 0 0 3 3 0 0 3 3 3 3
0 0 0 0 0 0 0 0 0 0 0 0 0 0 0 0 0 0 0 3 0 0 0 0 0 0 3 0 0 0 0 0 0 0 0 0 0 0 0 3 3 0 3 3
Height
5773 5775 5776 5777 5778 5779 5780 5780 5781 5781 5782 5782 5783 5783 5783 5782 5781 5780 5780 5779 5779 5778 5778 5777 5776 5776 5775 5775 5774 5774 5773 5773 5773 5772 5771 5770 5770 5769 5768 5767 5766 5765 5765 5764
5765 5767 5768 5768 5770 5770 5772 5773 5772 5773 5775 5776 5775 5775 5775 5775 5774 5773 5773 5773 5772 5771 5771 5770 5769 5769 5769 5768 5768 5767 5767 5766 5766 5765 5765 5764 5763 5762 5761 5760 5759 5758 5758 5757
5758 5760 5760 5760 5762 5763 5763 5764 5766 5766 5768 5768 5768 5767 5767 5767 5766 5765 5765 5765 5765 5764 5764 5763 5762 5762 5761 5761 5761 5760 5760 5760 5759 5759 5758 5757 5756 5756 5755 5753 5753 5752 5751 5750
5751 5753 5752 5756 5756 5756 5756 5757 5758 5758 5759 5760 5759 5759 5759 5759 5758 5757 5756 5757 5757 5757 5757 5756 5756 5755 5754 5754 5753 5753 5753 5753 5752 5752 5751 5750 5750 5749 5748 5747 5746 5745 5744 5743
5745 5745 5745 5747 5748 5748 5748 5748 5749 5749 5751 5751 5751 5751 5751 5751 5750 5748 5748 5750 5750 5749 5749 5749 5748 5748 5747 5747 5747 5746 5746 5745 5745 5745 5744 5743 5742 5742 5741 5740 5739 5738 5737 5735
5737 5737 5738 5739 5740 5741 5741 5739 5740 5740 5742 5742 5743 5743 5744 5743 5742 5740 5741 5742 5742 5742 5742 5742 5741 5741 5740 5740 5740 5739 5739 5739 5738 5738 5737 5736 5735 5734 5733 5732 5731 5730 5729 5728
5730 5729 5730 5731 5732 5733 5734 5733 5733 5732 5732 5733 5734 5735 5735 5735 5735 5734 5735 5735 5735 5735 5735 5734 5734 5734 5734 5733 5733 5733 5732 5732 5731 5731 5730 5729 5728 5727 5726 5725 5723 5722 5721 5720
5723 5723 5726 5724 5725 5725 5724 5725 5725 5724 5724 5725 5725 5726 5726 5726 5727 5727 5728 5728 5728 5728 5728 5728 5727 5727 5727 5727 5727 5726 5725 5725 5725 5724 5723 5722 5721 5720 5718 5717 5715 5714 5713 5711
5716 5718 5717 5715 5715 5716 5716 5717 5717 5717 5717 5717 5718 5718 5718 5719 5719 5719 5720 5720 5721 5721 5721 5721 5721 5721 5720 5720 5720 5719 5719 5718 5717 5716 5715 5714 5713 5711 5710 5709 5707 5706 5704 5703
5707 5709 5708 5709 5709 5709 5710 5710 5710 5710 5710 5710 5711 5711 5711 5712 5712 5712 5713 5713 5714 5714 5714 5715 5715 5714 5714 5713 5713 5712 5711 5710 5709 5709 5707 5706 5704 5703 5702 5701 5699 5698 5696 5695
5698 5700 5701 5702 5702 5702 5702 5703 5703 5703 5703 5703 5704 5704 5705 5705 5705 5706 5706 5707 5707 5707 5708 5708 5708 5707 5707 5706 5706 5704 5703 5702 5702 5700 5699 5698 5696 5695 5694 5693 5691 5690 5688 5686
5692 5693 5694 5694 5694 5695 5695 5695 5696 5696 5696 5696 5696 5697 5698 5698 5699 5699 5700 5700 5700 5701 5701 5701 5701 5700 5700 5699 5698 5697 5696 5695 5694 5693 5691 5690 5688 5687 5686 5685 5683 5681 5680 5678
5686 5686 5686 5687 5687 5687 5688 5688 5689 5689 5689 5689 5689 5690 5690 5691 5692 5692 5693 5693 5694 5694 5694 5694 5694 5694 5693 5692 5691 5690 5689 5688 5687 5685 5684 5682 5680 5679 5678 5677 5675 5673 5672 5670
5680 5680 5680 5680 5680 5680 5681 5681 5682 5682 5682 5682 5682 5683 5683 5684 5684 5685 5686 5687 5687 5687 5687 5687 5687 5687 5686 5685 5685 5683 5682 5681 5680 5678 5677 5675 5673 5671 5670 5669 5668 5666 5665 5663
5673 5673 5674 5674 5673 5673 5674 5675 5675 5675 5675 5675 5675 5676 5676 5677 5677 5678 5679 5680 5680 5680 5680 5680 5680 5680 5679 5678 5677 5676 5675 5674 5673 5671 5670 5668 5666 5664 5663 5661 5660 5659 5657 5656
5667 5667 5667 5667 5667 5668 5668 5668 5669 5669 5668 5668 5669 5669 5670 5670 5670 5671 5671 5672 5672 5673 5673 5673 5673 5672 5672 5671 5670 5669 5668 5667 5665 5664 5663 5661 5659 5658 5656 5655 5653 5651 5650 5648
5662 5661 5661 5661 5661 5661 5662 5662 5662 5662 5662 5662 5662 5663 5663 5664 5664 5665 5665 5665 5666 5666 5666 5666 5665 5665 5664 5663 5662 5662 5661 5659 5658 5657 5656 5654 5653 5651 5649 5648 5646 5645 5643 5642
5656 5655 5655 5656 5655 5655 5655 5655 5656 5656 5656 5655 5656 5656 5657 5658 5658 5659 5659 5659 5660 5660 5659 5659 5658 5657 5656 5656 5655 5655 5654 5653 5651 5650 5649 5647 5646 5644 5643 5641 5639 5637 5636 5635
5650 5650 5650 5650 5650 5650 5650 5650 5650 5650 5650 5650 5650 5651 5651 5652 5652 5653 5653 5653 5654 5654 5653 5652 5651 5650 5649 5649 5648 5647 5646 5645 5644 5643 5642 5640 5639 5637 5636 5634 5632 5630 5628 5627
5645 5645 5645 5645 5645 5645 5645 5645 5645 5645 5645 5645 5645 5645 5646 5646 5646 5647 5647 5647 5647 5647 5646 5645 5644 5644 5643 5642 5641 5640 5639 5638 5637 5636 5635 5633 5632 5630 5628 5627 5625 5623 5621 5620
5640 5640 5640 5640 5640 5640 5640 5640 5640 5640 5640 5640 5640 5640 5640 5641 5641 5641 5641 5641 5641 5640 5639 5638 5637 5637 5636 5635 5634 5633 5632 5631 5629 5628 5627 5626 5624 5623 5621 5619 5618 5616 5614 5613
5635 5635 5635 5635 5635 5635 5635 5635 5635 5635 5635 5635 5635 5635 5635 5635 5635 5635 5635 5634 5634 5633 5632 5631 5630 5629 5628 5627 5626 5625 5624 5623 5622 5621 5619 5618 5616 5614 5613 5611 5610 5608 5606 5605
5630 5630 5630 5630 5630 5630 5630 5630 5630 5630 5630 5630 5630 5630 5629 5629 5629 5629 5628 5628 5627 5626 5625 5624 5623 5622 5621 5619 5618 5617 5616 5615 5614 5613 5611 5610 5608 5607 5605 5603 5602 5600 5598 5597
5625 5624 5624 5624 5624 5624 5625 5625 5625 5625 5625 5625 5624 5624 5624 5624 5623 5622 5622 5621 5620 5619 5618 5617 5616 5615 5613 5612 5611 5610 5608 5607 5606 5604 5603 5602 5600 5599 5597 5595 5594 5592 5591 5589
5620 5619 5619 5619 5619 5619 5620 5620 5620 5620 5620 5620 5619 5619 5618 5617 5617 5616 5616 5615 5613 5613 5611 5610 5609 5608 5606 5605 5604 5602 5601 5599 5598 5596 5595 5594 5592 5591 5589 5588 5586 5584 5583 5581
5615 5614 5614 5614 5614 5614 5614 5614 5614 5614 5614 5614 5613 5613 5612 5612 5611 5610 5610 5609 5607 5606 5605 5603 5602 5600 5599 5598 5596 5595 5594 5592 5591 5590 5588 5587 5585 5583 5582 5580 5579 5577 5575 5574
5610 5610 5610 5610 5610 5609 5609 5609 5609 5608 5608 5608 5607 5608 5607 5606 5605 5604 5603 5602 5600 5599 5598 5596 5594 5593 5591 5590 5589 5588 5586 5585 5584 5582 5581 5579 5578 5576 5575 5573 5571 5570 5568 5566
Wind_Speed
27 27 26 27 28 28 30 30 31 31 31 30 28 28 29 27 27 28 28 28 27 26 25 24 24 24 24 25 25 25 25 25 24 23 24 24 24 24 24 24 24 23 24 24
27 25 25 26 27 27 29 29 30 30 30 29 30 29 29 29 29 28 28 28 27 26 25 25 24 24 25 25 25 26 25 25 25 25 24 24 24 24 24 24 24 25 25 25
27 26 26 26 25 27 29 30 30 31 31 31 31 31 31 30 29 29 28 27 26 26 26 26 25 24 25 25 25 25 25 25 25 24 24 24 24 24 24 24 24 24 24 25
27 26 26 26 25 25 28 30 30 31 31 30 31 31 30 30 29 28 27 26 26 26 25 25 25 25 25 25 25 25 25 25 25 25 24 24 24 24 24 24 24 25 25 26
27 26 25 25 25 26 28 31 31 30 30 31 30 30 31 29 28 27 25 25 25 25 24 25 26 25 25 24 24 24 25 25 25 25 25 25 25 25 25 25 25 26 26 27
28 27 27 26 25 26 28 32 30 30 30 30 29 30 30 28 28 26 25 25 25 24 24 25 25 25 24 24 23 23 23 24 25 25 25 24 25 25 25 26 27 27 28 28
27 27 28 26 26 26 29 31 29 29 30 30 30 30 29 29 28 26 25 25 25 24 24 24 23 23 24 24 23 24 24 24 24 25 25 25 25 25 26 26 27 28 28 29
27 27 27 27 26 28 29 27 28 30 30 30 29 29 29 29 28 27 27 26 25 24 24 24 23 23 23 24 24 24 25 25 25 25 26 26 26 26 27 27 27 28 29 29
27 28 27 26 26 27 26 25 26 28 29 29 28 27 26 26 25 24 25 25 25 24 24 24 24 23 23 24 25 25 25 25 26 26 27 27 27 27 27 27 28 28 29 29
26 27 27 26 26 26 26 26 27 27 28 29 28 27 26 25 24 25 26 26 25 24 25 25 25 24 24 24 25 26 26 26 26 27 27 27 27 28 27 27 28 28 28 28
23 23 24 25 26 27 26 26 26 26 26 26 27 26 26 25 25 26 26 26 26 26 25 25 25 25 25 26 26 26 25 25 26 26 27 27 28 28 28 28 28 28 28 28
23 23 24 25 25 25 25 25 25 24 24 24 24 25 25 26 26 26 25 24 25 25 25 24 25 25 25 25 25 24 25 25 25 25 26 26 26 27 27 28 28 27 27 27
23 23 24 24 24 24 24 24 24 24 24 24 24 25 25 25 25 25 24 23 24 24 24 24 24 24 24 25 25 25 25 24 24 25 25 25 25 25 26 26 26 26 26 26
21 21 21 21 22 23 23 23 23 23 24 24 24 24 24 24 24 24 24 23 23 23 24 24 24 24 24 24 25 25 25 25 25 25 25 25 25 25 25 25 24 24 24 24
18 20 21 21 21 21 22 22 22 23 23 23 23 23 24 24 23 23 23 23 23 23 24 24 24 24 25 25 26 27 26 25 24 24 24 25 25 25 24 24 23 23 23 23
19 20 20 20 21 21 21 21 21 22 22 23 23 24 23 22 22 21 22 23 23 23 24 24 24 25 26 26 26 26 25 25 24 23 24 25 25 24 24 23 23 23 23 23
19 19 19 20 20 21 21 22 22 21 22 23 23 22 21 21 21 21 21 21 22 23 23 24 24 25 25 25 25 24 24 24 24 24 24 24 24 23 23 23 23 23 23 24
19 18 18 19 20 21 21 21 21 21 21 20 20 21 20 20 20 20 20 20 21 22 22 23 23 24 24 23 23 23 24 24 24 24 24 24 24 23 24 24 24 24 24 24
18 18 18 19 19 19 19 19 19 19 19 19 20 20 20 20 20 20 20 21 21 22 22 23 23 23 23 23 23 23 23 23 23 24 23 24 23 23 24 24 24 24 24 24
18 18 18 19 19 19 18 18 17 18 18 19 19 19 19 19 20 20 20 21 21 21 22 22 22 22 22 22 22 23 23 23 23 23 23 23 24 24 24 24 24 24 24 25
17 17 17 18 17 18 17 17 17 17 18 18 18 18 18 19 19 20 20 20 21 21 22 22 22 22 22 23 23 23 23 24 24 24 24 24 25 25 25 25 25 25 25 25
17 17 18 17 17 16 17 17 17 17 18 18 18 19 19 19 20 21 21 22 22 22 23 23 23 23 23 24 23 23 24 25 24 25 24 25 26 26 26 26 26 26 26 26
18 18 18 17 17 16 16 16 17 17 17 18 18 19 19 19 20 21 21 22 22 22 23 23 23 23 23 24 24 25 25 25 25 25 25 25 25 25 26 26 26 27 26 25
18 18 18 17 16 17 17 17 17 18 18 18 18 19 19 19 19 20 21 21 22 22 22 23 23 23 23 23 24 25 25 25 25 25 25 25 25 24 25 25 25 25 24 24
18 17 16 16 17 17 17 17 17 17 18 19 19 19 19 19 19 19 20 21 22 22 23 23 23 24 24 24 24 24 24 24 25 25 25 24 24 24 24 24 24 24 24 24
16 15 15 15 15 16 16 17 18 19 19 18 18 18 19 19 20 21 22 22 23 23 23 23 23 24 24 24 24 24 24 24 24 25 24 24 24 24 24 24 24 24 24 25
14 14 14 15 15 15 15 16 16 17 17 17 17 17 18 19 20 21 23 23 23 23 23 23 23 24 24 24 24 24 24 23 24 24 25 25 25 25 25 25 25 24 24 24
Wind_Direction
260 256 254 254 253 252 251 252 254 259 262 263 266 269 275 277 276 275 277 277 277 278 276 277 277 278 279 278 278 278 279 280 279 278 280 281 280 279 281 282 282 280 280 283
259 256 254 252 250 253 252 251 255 259 264 267 267 270 273 275 274 274 275 275 276 276 275 275 277 277 277 278 276 276 279 279 279 278 279 281 281 280 280 281 281 281 281 282
256 255 255 255 253 252 251 251 255 260 262 265 266 268 271 274 276 273 272 272 273 272 272 273 277 279 277 277 276 277 278 279 279 279 279 281 281 280 280 280 281 282 282 282
255 256 256 257 259 259 256 254 255 259 263 265 266 267 269 272 273 272 271 269 271 270 270 273 276 278 278 278 276 276 277 278 279 279 280 280 281 280 280 279 279 282 283 283
256 257 259 259 260 261 261 258 256 259 262 264 266 265 267 270 272 271 269 271 273 271 271 273 275 277 278 278 278 276 276 277 278 281 282 282 283 283 282 280 280 282 284 284
258 260 259 262 260 261 263 262 260 261 263 265 265 265 265 266 268 273 270 270 270 270 273 273 274 276 276 276 277 277 278 278 279 282 282 282 284 286 285 282 281 282 283 284
257 261 259 262 262 261 260 261 262 265 267 265 263 266 266 267 266 267 268 268 271 273 274 275 276 275 275 276 277 278 279 280 279 281 281 281 283 284 285 285 284 283 284 284
255 255 256 260 262 260 260 263 264 264 266 267 265 265 266 266 263 262 263 265 268 272 275 276 276 275 275 276 277 279 279 280 280 281 282 282 282 283 284 284 284 285 285 285
257 256 258 259 264 264 264 265 267 266 266 269 266 264 266 267 262 261 263 264 267 270 272 273 274 274 276 275 276 278 279 279 280 282 282 283 283 284 284 285 286 286 287 287
257 257 261 263 263 262 262 264 265 267 267 265 267 267 267 264 263 264 266 266 266 268 270 271 273 274 276 276 277 279 280 280 280 282 283 283 285 284 285 285 286 287 287 288
257 258 260 261 262 265 264 263 265 268 267 265 265 266 265 265 265 265 267 267 266 268 270 270 271 272 275 276 278 280 280 280 282 283 285 285 285 284 283 286 288 288 288 288
260 261 263 265 264 264 266 268 268 268 269 268 265 263 263 265 266 268 270 268 266 266 267 269 270 272 274 275 278 280 281 282 283 286 289 288 286 284 284 286 287 288 288 289
263 264 267 268 265 263 263 266 267 267 266 264 264 265 263 264 266 267 268 267 266 267 268 269 270 272 274 277 278 280 283 285 286 287 289 291 289 287 287 288 288 288 289 290
266 266 269 270 268 266 266 267 267 267 265 264 265 266 265 264 266 267 266 266 266 265 267 270 272 274 276 278 280 282 283 284 286 287 289 291 290 289 289 290 288 289 290 290
268 266 269 270 267 266 266 264 266 267 267 266 267 268 269 269 267 265 263 265 266 267 269 272 275 277 278 280 282 283 284 285 284 285 288 291 291 290 290 290 289 289 290 291
269 269 268 266 265 265 267 268 267 269 270 269 268 268 269 269 268 265 265 265 267 270 273 275 278 279 279 281 284 285 286 286 285 287 289 291 291 290 291 291 289 289 290 292
270 270 266 263 263 264 266 266 268 271 272 269 267 266 267 267 269 268 268 266 269 271 273 275 276 278 280 281 282 283 285 287 288 289 289 290 290 291 291 291 289 288 289 290
272 271 268 267 270 268 266 265 265 269 269 266 264 266 266 266 268 269 269 270 273 274 276 276 276 277 279 281 283 284 285 286 288 289 289 289 288 289 291 291 289 288 287 289
272 272 273 272 273 273 268 265 265 266 266 266 267 268 267 268 270 271 271 272 275 275 275 276 278 281 283 282 283 285 286 286 287 288 288 289 289 290 292 292 289 287 287 289
273 273 272 272 272 271 268 267 265 264 264 266 267 268 268 268 269 271 272 274 276 277 278 278 280 282 283 282 283 285 287 287 286 287 287 288 289 290 290 290 288 288 289 290
273 271 271 273 274 271 269 269 266 265 265 267 268 269 271 272 273 275 278 278 279 280 280 280 281 281 282 281 283 284 286 287 286 286 286 287 288 289 289 288 288 288 289 289
275 273 272 270 269 268 269 270 270 270 271 271 270 271 272 273 274 277 280 280 281 282 283 282 281 282 282 282 282 286 288 287 286 286 286 288 289 289 289 288 287 288 290 289
275 273 271 270 268 267 268 271 273 274 275 275 275 274 274 274 275 278 281 282 282 283 285 285 284 283 283 283 283 285 286 287 286 285 287 288 290 290 289 288 288 289 289 289
277 274 270 268 266 265 265 267 270 274 275 275 274 274 275 276 277 279 280 282 284 285 285 285 285 285 285 285 285 285 286 287 287 286 286 288 288 288 289 289 289 288 287 288
277 275 271 269 267 266 267 269 271 272 272 274 275 276 277 278 280 282 282 283 286 287 286 286 286 285 286 287 287 286 286 287 287 286 286 285 286 287 288 290 290 289 287 287
278 276 273 270 268 269 269 269 269 271 273 274 277 278 278 280 283 284 286 286 287 288 289 289 287 286 286 286 286 285 285 287 287 286 285 286 288 288 288 289 291 289 289 289
281 280 276 274 273 273 274 274 274 275 276 277 278 281 283 284 284 285 287 287 288 290 291 290 288 287 286 285 285 286 285 285 286 285 285 286 287 287 287 287 289 290 289 290